Tracking 27122 objects as of 24-Mar-2023
HD Live streaming from Space Station
objects crossing your sky now

STARLINK-3122

Track STARLINK-3122 now!
10-day predictions
STARLINK-3122 is classified as:


NORAD ID: 49445
Int'l Code: 2021-104AP
Perigee: 546.0 km
Apogee: 547.6 km
Inclination: 53.2 °
Period: 95.4 minutes
Semi major axis: 6917 km
RCS: Unknown
Launch date: November 13, 2021
Source: United States (US)
Launch site: AIR FORCE EASTERN TEST RANGE (AFETR)
Your satellite tracking list
Your tracking list is empty




NASA's NSSDC Master Catalog

Two Line Element Set (TLE):
1 49445U 21104AP  23082.26543366  .00018254  00000-0  11612-2 0  9997
2 49445  53.2158  38.3076 0001104 103.3169 256.7946 15.08867047 75364
Source of the keplerian elements: AFSPC